WZZ822 EPGD-HEMA

Flight info

Callsign WZZ822
Flight time N/A
Altitude 21000
Route IRLUN N133 PENEX/N0387F270 N133 KOTEK/N0431F330 N133 LENOV DCT KENIN DCT KARIL DCT BULEN/N0435F350 L742 RIXEN UG1 IST UT35 AYT DCT CVO L315 HGD V730 SIBRI
Aircraft A21N/M-SDE2E3FGHIJ1RWXY/LB1

Departure

Time 2026-05-05 10:49
Airport Gdańsk Lech Wałęsa Airport (EPGD)

Arrival

Time N/A
Airport Marsa Alam International Airport (HEMA)
Time Latitude Longitude Altitude Speed Heading
2026-05-05 10:03 54.38220 18.46187 465 ft 0 kts 23°
2026-05-05 10:17 54.38221 18.46188 466 ft 4 kts 23°
2026-05-05 10:18 54.38220 18.46187 465 ft 0 kts 23°
2026-05-05 10:43 54.38202 18.46174 465 ft 4 kts 23°
2026-05-05 10:43 54.38184 18.46163 465 ft 4 kts 354°
2026-05-05 10:43 54.38175 18.46178 465 ft 4 kts 291°
2026-05-05 10:43 54.38166 18.46216 465 ft 1 kts 293°
2026-05-05 10:44 54.38165 18.46217 465 ft 0 kts 293°
2026-05-05 10:45 54.38167 18.46209 465 ft 3 kts 293°
2026-05-05 10:46 54.38177 18.46149 465 ft 7 kts 265°
2026-05-05 10:46 54.38135 18.46084 465 ft 9 kts 201°
2026-05-05 10:46 54.38098 18.45997 465 ft 10 kts 270°
2026-05-05 10:46 54.38120 18.45877 462 ft 11 kts 295°
2026-05-05 10:47 54.38150 18.45754 460 ft 12 kts 284°
2026-05-05 10:47 54.38118 18.45634 460 ft 12 kts 210°
2026-05-05 10:47 54.38044 18.45562 460 ft 12 kts 224°
2026-05-05 10:47 54.38013 18.45592 461 ft 5 kts 113°
2026-05-05 10:48 54.37993 18.45670 461 ft 18 kts 113°
2026-05-05 10:48 54.37847 18.46267 461 ft 89 kts 112°
2026-05-05 10:48 54.37519 18.47593 472 ft 150 kts 111°
2026-05-05 10:48 54.37092 18.49377 892 ft 164 kts 109°
2026-05-05 10:49 54.36664 18.51208 1565 ft 167 kts 110°
2026-05-05 10:49 54.36211 18.53032 2115 ft 170 kts 110°
2026-05-05 10:49 54.35701 18.54964 2436 ft 183 kts 112°
2026-05-05 10:49 54.35160 18.57000 2856 ft 192 kts 114°
2026-05-05 10:50 54.34607 18.59155 3304 ft 203 kts 112°
2026-05-05 10:50 54.34051 18.61465 3725 ft 217 kts 112°
2026-05-05 10:50 54.33360 18.63869 4137 ft 235 kts 126°
2026-05-05 10:50 54.32067 18.65748 4392 ft 257 kts 159°
2026-05-05 10:51 54.30273 18.66119 4845 ft 266 kts 193°
2026-05-05 10:51 54.28504 18.65206 5606 ft 267 kts 192°
2026-05-05 10:51 54.26655 18.65420 6396 ft 271 kts 166°
2026-05-05 10:51 54.24866 18.66516 7168 ft 274 kts 162°
2026-05-05 10:52 54.23076 18.67655 7891 ft 276 kts 163°
2026-05-05 10:52 54.21255 18.68748 8565 ft 279 kts 164°
2026-05-05 10:52 54.19399 18.69806 9240 ft 282 kts 165°
2026-05-05 10:52 54.17524 18.70843 9910 ft 284 kts 166°
2026-05-05 10:53 54.15594 18.71890 10295 ft 299 kts 166°
2026-05-05 10:53 54.13551 18.72984 10560 ft 316 kts 166°
2026-05-05 10:53 54.11403 18.74136 10877 ft 329 kts 166°
2026-05-05 10:53 54.09202 18.75312 11487 ft 333 kts 166°
2026-05-05 10:54 54.06989 18.76489 12142 ft 335 kts 167°
2026-05-05 10:54 54.04754 18.77672 12799 ft 337 kts 167°
2026-05-05 10:54 54.02510 18.78859 13424 ft 339 kts 167°
2026-05-05 10:54 54.00241 18.80056 14022 ft 343 kts 167°
2026-05-05 10:55 53.97956 18.81260 14633 ft 345 kts 167°
2026-05-05 10:55 53.95651 18.82476 15210 ft 348 kts 167°
2026-05-05 10:55 53.93329 18.83699 15786 ft 351 kts 167°
2026-05-05 10:55 53.90988 18.84931 16348 ft 354 kts 167°
2026-05-05 10:56 53.88622 18.86173 16902 ft 357 kts 167°
2026-05-05 10:56 53.86246 18.87418 17437 ft 359 kts 167°
2026-05-05 10:56 53.84659 18.88250 17784 ft 361 kts 167°
2026-05-05 10:56 53.81459 18.89928 18464 ft 365 kts 167°
2026-05-05 10:57 53.79817 18.90786 18795 ft 367 kts 167°
2026-05-05 10:57 53.76581 18.92475 19447 ft 371 kts 167°
2026-05-05 10:57 53.74091 18.93774 19924 ft 374 kts 167°
2026-05-05 10:57 53.72411 18.94648 20231 ft 376 kts 167°
2026-05-05 10:58 53.69904 18.95953 20688 ft 379 kts 167°
2026-05-05 10:58 53.67372 18.97268 21136 ft 381 kts 167°
2026-05-05 10:58 53.64830 18.98589 21568 ft 384 kts 167°
2026-05-05 10:58 53.62269 18.99916 21994 ft 387 kts 167°
2026-05-05 10:59 53.59683 19.01254 22409 ft 389 kts 167°
2026-05-05 10:59 53.57088 19.02596 22805 ft 392 kts 167°
2026-05-05 10:59 53.54499 19.03934 23198 ft 395 kts 167°
2026-05-05 10:59 53.51858 19.05295 23585 ft 397 kts 167°
2026-05-05 11:00 53.49207 19.06662 23965 ft 399 kts 167°
2026-05-05 11:00 53.46543 19.08034 24335 ft 402 kts 167°
2026-05-05 11:00 53.43862 19.09411 24708 ft 404 kts 167°
2026-05-05 11:00 53.41162 19.10796 25068 ft 406 kts 167°
2026-05-05 11:01 53.38456 19.12182 25413 ft 408 kts 167°
2026-05-05 11:01 53.35732 19.13576 25743 ft 410 kts 167°
2026-05-05 11:01 53.32990 19.14977 26071 ft 412 kts 167°
2026-05-05 11:01 53.30237 19.16382 26395 ft 414 kts 167°
2026-05-05 11:02 53.27474 19.17790 26702 ft 416 kts 167°
2026-05-05 11:02 53.24733 19.19186 27001 ft 418 kts 167°
2026-05-05 11:02 53.21940 19.20607 27314 ft 420 kts 167°
2026-05-05 11:02 53.19143 19.22026 27610 ft 422 kts 167°
2026-05-05 11:03 53.16324 19.23454 27884 ft 424 kts 167°
2026-05-05 11:03 53.13500 19.24886 28151 ft 425 kts 167°
2026-05-05 11:03 53.10658 19.26322 28439 ft 427 kts 167°
2026-05-05 11:03 53.07806 19.27761 28698 ft 429 kts 167°
2026-05-05 11:04 53.04943 19.29203 28957 ft 431 kts 167°
2026-05-05 11:04 53.02071 19.30649 29223 ft 432 kts 167°
2026-05-05 11:04 52.99192 19.32097 29461 ft 433 kts 167°
2026-05-05 11:04 52.96297 19.33549 29701 ft 435 kts 167°
2026-05-05 11:05 52.93396 19.35002 29923 ft 437 kts 167°
2026-05-05 11:05 52.90484 19.36461 30150 ft 438 kts 167°
2026-05-05 11:05 52.87565 19.37920 30377 ft 440 kts 167°
2026-05-05 11:05 52.84627 19.39386 30582 ft 441 kts 167°
2026-05-05 11:06 52.81681 19.40854 30783 ft 443 kts 167°
2026-05-05 11:06 52.78727 19.42325 30981 ft 444 kts 167°
2026-05-05 11:06 52.75765 19.43797 31165 ft 445 kts 167°
2026-05-05 11:06 52.72794 19.45272 31339 ft 447 kts 167°
2026-05-05 11:07 52.69811 19.46752 31530 ft 448 kts 167°
2026-05-05 11:07 52.66826 19.48229 31747 ft 447 kts 167°
2026-05-05 11:07 52.63843 19.49705 31963 ft 447 kts 167°
2026-05-05 11:07 52.60864 19.51175 32167 ft 447 kts 167°
2026-05-05 11:08 52.57885 19.52642 32370 ft 447 kts 167°
2026-05-05 11:08 52.54903 19.54109 32552 ft 447 kts 167°
2026-05-05 11:08 52.51923 19.55572 32743 ft 447 kts 167°
2026-05-05 11:08 52.48974 19.57018 32923 ft 447 kts 167°
2026-05-05 11:09 52.45996 19.58477 33091 ft 447 kts 167°
2026-05-05 11:09 52.43020 19.59931 33241 ft 447 kts 167°
2026-05-05 11:09 52.40037 19.61389 33387 ft 447 kts 167°
2026-05-05 11:09 52.37053 19.62846 33553 ft 447 kts 167°
2026-05-05 11:10 52.34072 19.64300 33695 ft 447 kts 167°
2026-05-05 11:10 52.31089 19.65752 33833 ft 447 kts 167°
2026-05-05 11:10 52.28108 19.67201 33975 ft 448 kts 167°
2026-05-05 11:10 52.25119 19.68650 34111 ft 447 kts 167°
2026-05-05 11:11 52.22135 19.70096 34243 ft 448 kts 167°
2026-05-05 11:11 52.19144 19.71543 34377 ft 447 kts 167°
2026-05-05 11:11 52.16158 19.72986 34499 ft 447 kts 167°
2026-05-05 11:11 52.13172 19.74427 34615 ft 447 kts 167°
2026-05-05 11:12 52.10188 19.75865 34734 ft 447 kts 167°
2026-05-05 11:12 52.07205 19.77302 34844 ft 447 kts 167°
2026-05-05 11:12 52.04219 19.78736 34882 ft 447 kts 167°
2026-05-05 11:13 51.98253 19.81594 34859 ft 446 kts 167°
2026-05-05 11:13 51.92283 19.84448 34843 ft 447 kts 167°
2026-05-05 11:14 51.86300 19.87302 34832 ft 447 kts 167°
2026-05-05 11:14 51.80329 19.90140 34833 ft 448 kts 167°
2026-05-05 11:15 51.74353 19.92976 34832 ft 447 kts 167°
2026-05-05 11:15 51.68424 19.95779 34832 ft 447 kts 167°
2026-05-05 11:16 51.62451 19.98595 34830 ft 447 kts 167°
2026-05-05 11:16 51.56476 20.01403 34833 ft 448 kts 167°
2026-05-05 11:17 51.50491 20.04210 34822 ft 448 kts 167°
2026-05-05 11:17 51.44501 20.07013 34837 ft 448 kts 167°
2026-05-05 11:18 51.38513 20.09806 34840 ft 448 kts 167°
2026-05-05 11:18 51.32526 20.12591 34848 ft 449 kts 167°
2026-05-05 11:19 51.26526 20.15375 34849 ft 449 kts 167°
2026-05-05 11:19 51.20523 20.18152 34859 ft 449 kts 166°
2026-05-05 11:20 51.14521 20.20921 34860 ft 449 kts 166°
2026-05-05 11:20 51.08504 20.23688 34861 ft 449 kts 166°
2026-05-05 11:21 51.02531 20.26432 34862 ft 450 kts 166°
2026-05-05 11:21 50.96523 20.29183 34860 ft 450 kts 166°
2026-05-05 11:22 50.90500 20.31933 34865 ft 451 kts 166°
2026-05-05 11:22 50.84487 20.34668 34871 ft 450 kts 166°
2026-05-05 11:23 50.78443 20.37410 34870 ft 450 kts 166°
2026-05-05 11:23 50.72419 20.40139 34870 ft 450 kts 166°
2026-05-05 11:24 50.66390 20.42864 34871 ft 451 kts 166°
2026-05-05 11:24 50.60357 20.45580 34871 ft 451 kts 166°
2026-05-05 11:25 50.54367 20.48269 34870 ft 451 kts 166°
2026-05-05 11:25 50.48333 20.50971 34871 ft 451 kts 166°
2026-05-05 11:26 50.42304 20.53665 34870 ft 451 kts 166°
2026-05-05 11:26 50.36265 20.56356 34871 ft 451 kts 166°
2026-05-05 11:27 50.30230 20.59037 34879 ft 451 kts 166°
2026-05-05 11:27 50.24188 20.61714 34879 ft 451 kts 166°
2026-05-05 11:28 50.18155 20.64383 34881 ft 451 kts 166°
2026-05-05 11:28 50.12153 20.67029 34879 ft 451 kts 166°
2026-05-05 11:29 50.06110 20.69685 34889 ft 451 kts 166°
2026-05-05 11:29 50.00059 20.72339 34907 ft 451 kts 166°
2026-05-05 11:30 49.94008 20.74986 34915 ft 453 kts 166°
2026-05-05 11:30 49.87947 20.77631 34920 ft 453 kts 166°
2026-05-05 11:31 49.81877 20.80273 34926 ft 453 kts 166°
2026-05-05 11:31 49.75792 20.82914 34929 ft 453 kts 166°
2026-05-05 11:32 49.69721 20.85542 34941 ft 454 kts 166°
2026-05-05 11:32 49.63643 20.88167 34939 ft 454 kts 166°
2026-05-05 11:33 49.57560 20.90787 34946 ft 454 kts 166°
2026-05-05 11:33 49.51473 20.93402 34949 ft 454 kts 166°
2026-05-05 11:34 49.45378 20.96013 34954 ft 454 kts 166°
2026-05-05 11:34 49.39319 20.98602 34959 ft 454 kts 166°
2026-05-05 11:35 49.33286 21.01521 34961 ft 457 kts 156°
2026-05-05 11:35 49.27817 21.06505 34973 ft 458 kts 148°
2026-05-05 11:36 49.22448 21.11748 34972 ft 458 kts 148°
2026-05-05 11:36 49.17048 21.16929 34971 ft 458 kts 149°
2026-05-05 11:37 49.11639 21.22086 34980 ft 458 kts 149°
2026-05-05 11:37 49.06229 21.27234 34983 ft 458 kts 149°
2026-05-05 11:38 49.00812 21.32373 34998 ft 458 kts 149°
2026-05-05 11:38 48.95401 21.37496 34988 ft 458 kts 149°
2026-05-05 11:39 48.89982 21.42614 34986 ft 458 kts 149°
2026-05-05 11:39 48.84561 21.47717 34987 ft 458 kts 149°
2026-05-05 11:40 48.80050 21.51954 34993 ft 459 kts 148°
2026-05-05 11:40 48.73724 21.57882 34986 ft 460 kts 148°
2026-05-05 11:41 48.68272 21.62976 34999 ft 460 kts 148°
2026-05-05 11:41 48.63702 21.67236 34998 ft 460 kts 148°
2026-05-05 11:42 48.58272 21.72288 34993 ft 461 kts 148°
2026-05-05 11:42 48.52797 21.77367 35001 ft 461 kts 148°
2026-05-05 11:43 48.47318 21.82432 34986 ft 461 kts 148°
2026-05-05 11:43 48.41831 21.87495 34988 ft 462 kts 148°
2026-05-05 11:44 48.36374 21.92521 34988 ft 463 kts 148°
2026-05-05 11:44 48.30883 21.97564 34986 ft 463 kts 148°
2026-05-05 11:45 48.25387 22.02595 35000 ft 463 kts 148°
2026-05-05 11:45 48.19884 22.07618 34999 ft 463 kts 148°
2026-05-05 11:46 48.14382 22.12629 34997 ft 463 kts 148°
2026-05-05 11:46 48.08877 22.17632 34997 ft 463 kts 148°
2026-05-05 11:47 48.03369 22.22624 34998 ft 463 kts 148°
2026-05-05 11:47 47.97857 22.27606 35003 ft 463 kts 148°
2026-05-05 11:48 47.89623 22.35027 34994 ft 463 kts 148°
2026-05-05 11:48 47.84112 22.39978 35002 ft 463 kts 148°
2026-05-05 11:49 47.78597 22.44921 35007 ft 463 kts 148°
2026-05-05 11:49 47.73103 22.49911 35010 ft 463 kts 148°
2026-05-05 11:50 47.67614 22.54894 35020 ft 463 kts 148°
2026-05-05 11:50 47.62113 22.59863 35020 ft 462 kts 148°
2026-05-05 11:51 47.56610 22.64820 35017 ft 462 kts 148°
2026-05-05 11:51 47.51100 22.69774 35019 ft 463 kts 148°
2026-05-05 11:52 47.45586 22.74720 35020 ft 463 kts 148°
2026-05-05 11:52 47.40071 22.79653 35020 ft 463 kts 148°
2026-05-05 11:53 47.34555 22.84574 35021 ft 463 kts 148°
2026-05-05 11:53 47.29043 22.89478 35021 ft 463 kts 148°
2026-05-05 11:54 47.23520 22.94380 35023 ft 463 kts 148°
2026-05-05 11:54 47.18036 22.99236 35018 ft 463 kts 148°
2026-05-05 11:55 47.12513 23.04109 35024 ft 463 kts 148°
2026-05-05 11:55 47.06954 23.08886 35022 ft 463 kts 147°
2026-05-05 11:56 47.01443 23.13831 35019 ft 464 kts 148°
2026-05-05 11:56 46.95910 23.18706 35020 ft 463 kts 148°
2026-05-05 11:57 46.90374 23.23545 35018 ft 463 kts 148°
2026-05-05 11:57 46.84840 23.28371 35025 ft 463 kts 148°
2026-05-05 11:58 46.79304 23.33188 35018 ft 463 kts 148°
2026-05-05 11:58 46.73769 23.37993 35022 ft 463 kts 148°
2026-05-05 11:59 46.68230 23.42788 35028 ft 463 kts 148°
2026-05-05 11:59 46.62715 23.47552 35029 ft 464 kts 148°
2026-05-05 12:00 46.57165 23.52333 35034 ft 464 kts 148°
2026-05-05 12:00 46.51608 23.57110 35042 ft 463 kts 148°
2026-05-05 12:01 46.46060 23.61867 35045 ft 463 kts 148°
2026-05-05 12:01 46.40520 23.66618 35049 ft 463 kts 148°
2026-05-05 12:02 46.34974 23.71393 35051 ft 464 kts 148°
2026-05-05 12:02 46.29449 23.76106 35051 ft 463 kts 148°
2026-05-05 12:03 46.23889 23.80831 35048 ft 463 kts 148°
2026-05-05 12:03 46.18332 23.85544 35041 ft 463 kts 148°
2026-05-05 12:04 46.12781 23.90236 35042 ft 463 kts 148°
2026-05-05 12:04 46.07220 23.94926 35034 ft 463 kts 148°
2026-05-05 12:05 46.01650 23.99611 35028 ft 463 kts 148°
2026-05-05 12:05 45.96077 24.04288 35030 ft 464 kts 148°
2026-05-05 12:06 45.90509 24.08950 35030 ft 463 kts 148°
2026-05-05 12:06 45.84967 24.13578 35021 ft 464 kts 148°
2026-05-05 12:07 45.79391 24.18232 35020 ft 464 kts 148°
2026-05-05 12:07 45.73930 24.23118 35016 ft 462 kts 143°
2026-05-05 12:08 45.68579 24.28228 35015 ft 464 kts 149°
2026-05-05 12:08 45.62793 24.32338 35024 ft 465 kts 152°
2026-05-05 12:09 45.57091 24.36702 35019 ft 465 kts 149°
2026-05-05 12:09 45.51488 24.41305 35028 ft 465 kts 148°
2026-05-05 12:10 45.45882 24.45924 35030 ft 464 kts 148°
2026-05-05 12:10 45.40325 24.50483 35027 ft 464 kts 148°
2026-05-05 12:11 45.34713 24.55075 35036 ft 465 kts 148°
2026-05-05 12:11 45.29110 24.59665 35039 ft 464 kts 148°
2026-05-05 12:12 45.23519 24.64269 35041 ft 465 kts 148°
2026-05-05 12:12 45.17908 24.68843 35039 ft 466 kts 148°
2026-05-05 12:13 45.12285 24.73402 35041 ft 466 kts 148°
2026-05-05 12:13 45.06652 24.77960 35041 ft 466 kts 148°
2026-05-05 12:14 45.01026 24.82505 35042 ft 466 kts 149°
2026-05-05 12:14 44.95400 24.87037 35031 ft 465 kts 149°
2026-05-05 12:15 44.89813 24.91532 35030 ft 465 kts 149°
2026-05-05 12:15 44.84184 24.96045 35031 ft 465 kts 149°
2026-05-05 12:16 44.78565 25.00541 35030 ft 464 kts 149°
2026-05-05 12:16 44.72948 25.05021 35030 ft 464 kts 149°
2026-05-05 12:17 44.67323 25.09504 35030 ft 464 kts 149°
2026-05-05 12:17 44.61703 25.13974 35030 ft 465 kts 149°
2026-05-05 12:18 44.56077 25.18434 35031 ft 464 kts 149°
2026-05-05 12:18 44.50453 25.22886 35028 ft 464 kts 149°
2026-05-05 12:19 44.44819 25.27340 35029 ft 465 kts 149°
2026-05-05 12:19 44.39184 25.31781 35030 ft 464 kts 149°
2026-05-05 12:20 44.33600 25.36171 35029 ft 464 kts 149°
2026-05-05 12:20 44.27982 25.40603 35030 ft 464 kts 148°
2026-05-05 12:21 44.22399 25.45110 35031 ft 463 kts 150°
2026-05-05 12:21 44.16739 25.49407 35032 ft 463 kts 150°
2026-05-05 12:22 44.11105 25.53749 35030 ft 462 kts 149°
2026-05-05 12:22 44.05491 25.58115 35034 ft 463 kts 149°
2026-05-05 12:23 43.99856 25.62487 35031 ft 463 kts 149°
2026-05-05 12:23 43.94224 25.66849 35032 ft 464 kts 149°
2026-05-05 12:24 43.88581 25.71205 35040 ft 464 kts 150°
2026-05-05 12:24 43.82941 25.75553 35040 ft 464 kts 150°
2026-05-05 12:25 43.77298 25.79887 35040 ft 464 kts 149°
2026-05-05 12:25 43.73045 25.84306 35042 ft 461 kts 133°
2026-05-05 12:26 43.68732 25.90850 35054 ft 460 kts 130°
2026-05-05 12:26 43.64426 25.97404 35051 ft 461 kts 131°
2026-05-05 12:27 43.60064 26.03899 35049 ft 460 kts 131°
2026-05-05 12:27 43.55703 26.10359 35051 ft 460 kts 131°
2026-05-05 12:28 43.51343 26.16806 35048 ft 460 kts 131°
2026-05-05 12:28 43.46995 26.23192 35050 ft 460 kts 131°
2026-05-05 12:29 43.42625 26.29611 35049 ft 460 kts 131°
2026-05-05 12:29 43.38262 26.36027 35049 ft 460 kts 131°
2026-05-05 12:30 43.33896 26.42446 35056 ft 460 kts 131°
2026-05-05 12:30 43.29518 26.48841 35057 ft 459 kts 131°
2026-05-05 12:31 43.25132 26.55228 35058 ft 459 kts 131°
2026-05-05 12:31 43.20754 26.61597 35059 ft 459 kts 131°
2026-05-05 12:32 43.16360 26.67945 35061 ft 459 kts 132°
2026-05-05 12:32 43.11913 26.74239 35066 ft 459 kts 133°
2026-05-05 12:33 43.07467 26.80519 35069 ft 459 kts 133°
2026-05-05 12:33 43.03036 26.86776 35069 ft 458 kts 132°
2026-05-05 12:34 42.98793 26.93198 35072 ft 457 kts 130°
2026-05-05 12:34 42.94553 26.99680 35072 ft 458 kts 130°
2026-05-05 12:35 42.90304 27.06153 35080 ft 457 kts 130°
2026-05-05 12:35 42.86056 27.12605 35081 ft 457 kts 130°
2026-05-05 12:36 42.81812 27.19036 35085 ft 457 kts 130°
2026-05-05 12:36 42.77553 27.25473 35075 ft 457 kts 131°
2026-05-05 12:37 42.73295 27.31903 35080 ft 457 kts 131°
2026-05-05 12:37 42.69032 27.38317 35084 ft 457 kts 131°
2026-05-05 12:38 42.64761 27.44733 35079 ft 457 kts 131°
2026-05-05 12:38 42.60520 27.51089 35076 ft 457 kts 131°
2026-05-05 12:39 42.56805 27.58026 35078 ft 455 kts 119°
2026-05-05 12:39 42.53580 27.65412 35080 ft 454 kts 119°
2026-05-05 12:40 42.50342 27.72767 35079 ft 454 kts 120°
2026-05-05 12:40 42.47087 27.80109 35087 ft 454 kts 120°
2026-05-05 12:41 42.43826 27.87450 35083 ft 454 kts 120°
2026-05-05 12:41 42.40566 27.94768 35080 ft 454 kts 120°
2026-05-05 12:42 42.37517 28.02240 35084 ft 453 kts 116°
2026-05-05 12:42 42.34582 28.09790 35081 ft 453 kts 116°
2026-05-05 12:43 42.31641 28.17340 35086 ft 454 kts 116°
2026-05-05 12:43 42.28691 28.24873 35083 ft 453 kts 116°
2026-05-05 12:44 42.25761 28.32339 35085 ft 453 kts 116°
2026-05-05 12:44 42.22801 28.39857 35084 ft 453 kts 116°
2026-05-05 12:45 42.19827 28.47375 35077 ft 454 kts 116°
2026-05-05 12:45 42.16858 28.54887 35080 ft 453 kts 116°
2026-05-05 12:46 42.13882 28.62388 35077 ft 453 kts 116°
2026-05-05 12:46 42.10747 28.69773 35079 ft 455 kts 125°
2026-05-05 12:47 42.08582 28.72892 35074 ft 459 kts 139°
2026-05-05 12:47 42.05909 28.75245 35077 ft 461 kts 153°
2026-05-05 12:47 42.02917 28.76657 35082 ft 463 kts 168°
2026-05-05 12:47 41.99675 28.77128 35084 ft 464 kts 178°
2026-05-05 12:48 41.93202 28.77268 35083 ft 466 kts 179°
2026-05-05 12:48 41.86756 28.77464 35075 ft 466 kts 179°
2026-05-05 12:49 41.80272 28.77721 35085 ft 466 kts 179°
2026-05-05 12:49 41.73776 28.77976 35079 ft 467 kts 179°
2026-05-05 12:50 41.67283 28.78232 35080 ft 467 kts 179°
2026-05-05 12:50 41.60787 28.78481 35086 ft 467 kts 179°
2026-05-05 12:51 41.54296 28.78739 35080 ft 466 kts 179°
2026-05-05 12:51 41.47809 28.78989 35082 ft 466 kts 179°
2026-05-05 12:52 41.41364 28.79236 35078 ft 466 kts 179°
2026-05-05 12:52 41.34869 28.79487 35086 ft 467 kts 179°
2026-05-05 12:53 41.28364 28.79744 35074 ft 467 kts 179°
2026-05-05 12:53 41.21869 28.79992 35080 ft 467 kts 179°
2026-05-05 12:54 41.12108 28.80413 35085 ft 468 kts 179°
2026-05-05 12:55 41.05599 28.80686 35083 ft 468 kts 179°
2026-05-05 12:55 40.99084 28.80967 35078 ft 469 kts 178°
2026-05-05 12:55 40.95890 28.81497 35077 ft 470 kts 167°
2026-05-05 12:56 40.92776 28.82821 35079 ft 470 kts 158°
2026-05-05 12:56 40.86743 28.86178 35079 ft 471 kts 157°
2026-05-05 12:57 40.80698 28.89514 35075 ft 471 kts 157°
2026-05-05 12:57 40.74626 28.92807 35083 ft 472 kts 158°
2026-05-05 12:58 40.68545 28.96111 35080 ft 473 kts 158°
2026-05-05 12:58 40.62458 28.99417 35086 ft 473 kts 158°
2026-05-05 12:59 40.56403 29.02689 35086 ft 474 kts 158°
2026-05-05 12:59 40.50309 29.05991 35076 ft 473 kts 158°
2026-05-05 13:00 40.41156 29.10910 35079 ft 474 kts 158°
2026-05-05 13:01 40.28910 29.17472 35085 ft 476 kts 158°
2026-05-05 13:01 40.22761 29.20764 35081 ft 477 kts 158°
2026-05-05 13:02 40.16605 29.24055 35083 ft 478 kts 158°
2026-05-05 13:02 40.10430 29.27344 35076 ft 479 kts 158°
2026-05-05 13:03 40.04251 29.30630 35080 ft 479 kts 158°
2026-05-05 13:03 39.98093 29.33899 35081 ft 480 kts 158°
2026-05-05 13:04 39.91878 29.37189 35077 ft 483 kts 158°
2026-05-05 13:04 39.85675 29.40596 35078 ft 485 kts 155°
2026-05-05 13:05 39.79592 29.44393 35074 ft 485 kts 155°
2026-05-05 13:05 39.73313 29.47640 35080 ft 485 kts 160°
2026-05-05 13:06 39.67020 29.50825 35089 ft 486 kts 158°
2026-05-05 13:06 39.60787 29.54067 35077 ft 485 kts 159°
2026-05-05 13:07 39.54509 29.57214 35062 ft 483 kts 159°
2026-05-05 13:07 39.48221 29.60352 35061 ft 483 kts 159°
2026-05-05 13:08 39.41937 29.63481 35065 ft 483 kts 160°
2026-05-05 13:08 39.35662 29.66600 35062 ft 483 kts 160°
2026-05-05 13:09 39.29388 29.69712 35060 ft 483 kts 160°
2026-05-05 13:09 39.23101 29.72825 35060 ft 484 kts 160°
2026-05-05 13:10 39.16757 29.75560 35057 ft 483 kts 163°
2026-05-05 13:10 39.10356 29.78395 35052 ft 483 kts 160°
2026-05-05 13:11 39.04124 29.81500 35050 ft 484 kts 158°
2026-05-05 13:11 38.97887 29.84757 35047 ft 484 kts 159°
2026-05-05 13:12 38.91601 29.87873 35050 ft 484 kts 160°
2026-05-05 13:12 38.85351 29.91146 35049 ft 485 kts 158°
2026-05-05 13:13 38.79072 29.94333 35048 ft 485 kts 160°
2026-05-05 13:13 38.73810 29.96843 35049 ft 485 kts 161°
2026-05-05 13:14 38.67468 29.99841 35050 ft 486 kts 161°
2026-05-05 13:14 38.61112 30.02847 35050 ft 487 kts 161°
2026-05-05 13:15 38.54750 30.05853 35050 ft 488 kts 161°
2026-05-05 13:15 38.48377 30.08859 35047 ft 488 kts 161°
2026-05-05 13:16 38.42004 30.11857 35042 ft 489 kts 161°
2026-05-05 13:16 38.35614 30.14858 35038 ft 489 kts 161°
2026-05-05 13:17 38.29233 30.17824 35041 ft 488 kts 162°
2026-05-05 13:17 38.22884 30.20729 35038 ft 488 kts 162°
2026-05-05 13:18 38.16487 30.23666 35032 ft 488 kts 162°
2026-05-05 13:18 38.10093 30.26598 35029 ft 488 kts 162°
2026-05-05 13:19 38.03690 30.29528 35030 ft 488 kts 162°
2026-05-05 13:19 37.97282 30.32449 35032 ft 491 kts 162°
2026-05-05 13:20 37.90880 30.35346 35024 ft 491 kts 162°
2026-05-05 13:20 37.84438 30.38259 35020 ft 491 kts 162°
2026-05-05 13:21 37.78001 30.41161 35024 ft 491 kts 162°
2026-05-05 13:21 37.71561 30.44067 35022 ft 491 kts 162°
2026-05-05 13:22 37.65132 30.46958 35021 ft 490 kts 162°
2026-05-05 13:22 37.58700 30.49848 35017 ft 490 kts 162°
2026-05-05 13:23 37.52282 30.52724 35010 ft 490 kts 162°
2026-05-05 13:23 37.45847 30.55601 35008 ft 490 kts 162°
2026-05-05 13:24 37.39416 30.58471 35000 ft 490 kts 162°
2026-05-05 13:24 37.32993 30.61344 34995 ft 489 kts 163°
2026-05-05 13:25 37.26572 30.64213 34983 ft 489 kts 163°
2026-05-05 13:25 37.20161 30.67058 34978 ft 489 kts 163°
2026-05-05 13:26 37.13789 30.69884 34973 ft 488 kts 163°
2026-05-05 13:26 37.07384 30.72732 34969 ft 488 kts 163°
2026-05-05 13:27 37.00980 30.75558 34971 ft 487 kts 163°
2026-05-05 13:27 36.94574 30.78353 34965 ft 487 kts 164°
2026-05-05 13:28 36.87985 30.79934 34959 ft 479 kts 180°
2026-05-05 13:28 36.81334 30.80501 34962 ft 478 kts 180°
2026-05-05 13:29 36.74722 30.81073 34963 ft 479 kts 180°
2026-05-05 13:29 36.68076 30.81702 34968 ft 478 kts 180°
2026-05-05 13:30 36.61432 30.82329 34970 ft 479 kts 180°
2026-05-05 13:30 36.54791 30.82977 34970 ft 478 kts 180°
2026-05-05 13:31 36.48159 30.83593 34969 ft 478 kts 180°
2026-05-05 13:31 36.41527 30.84201 34970 ft 478 kts 180°
2026-05-05 13:32 36.34945 30.84807 34971 ft 477 kts 180°
2026-05-05 13:32 36.28325 30.85413 34974 ft 477 kts 180°
2026-05-05 13:33 36.21703 30.86029 34976 ft 478 kts 180°
2026-05-05 13:33 36.15065 30.86652 34978 ft 478 kts 180°
2026-05-05 13:34 36.08436 30.87271 34980 ft 478 kts 180°
2026-05-05 13:34 36.01796 30.87878 34979 ft 480 kts 180°
2026-05-05 13:35 35.95129 30.88492 34982 ft 478 kts 181°
2026-05-05 13:35 35.88509 30.89108 34979 ft 477 kts 181°
2026-05-05 13:36 35.81932 30.89713 34982 ft 477 kts 181°
2026-05-05 13:36 35.75312 30.90322 34980 ft 476 kts 181°
2026-05-05 13:37 35.68688 30.90922 34992 ft 477 kts 181°
2026-05-05 13:37 35.62071 30.91521 34987 ft 476 kts 181°
2026-05-05 13:38 35.55461 30.92112 34987 ft 476 kts 181°
2026-05-05 13:38 35.48848 30.92711 34999 ft 476 kts 181°
2026-05-05 13:39 35.42244 30.93312 34986 ft 476 kts 181°
2026-05-05 13:39 35.35643 30.93912 34986 ft 476 kts 181°
2026-05-05 13:40 35.29047 30.94510 34986 ft 475 kts 181°
2026-05-05 13:40 35.22495 30.95100 34989 ft 474 kts 181°
2026-05-05 13:41 35.15909 30.95696 34999 ft 474 kts 181°
2026-05-05 13:41 35.09329 30.96291 34985 ft 473 kts 181°
2026-05-05 13:42 35.02760 30.96883 34986 ft 472 kts 182°
2026-05-05 13:42 34.96219 30.97471 34997 ft 472 kts 182°
2026-05-05 13:43 34.89664 30.98059 34998 ft 471 kts 182°
2026-05-05 13:43 34.83134 30.98644 34999 ft 470 kts 182°
2026-05-05 13:44 34.76654 30.99224 35000 ft 470 kts 182°
2026-05-05 13:44 34.70128 30.99806 34986 ft 469 kts 182°
2026-05-05 13:45 34.63593 31.00387 34982 ft 469 kts 182°
2026-05-05 13:45 34.57088 31.00966 34980 ft 469 kts 182°
2026-05-05 13:46 34.50632 31.01539 34998 ft 468 kts 182°
2026-05-05 13:46 34.44135 31.02117 34996 ft 468 kts 182°
2026-05-05 13:47 34.37642 31.02692 35002 ft 467 kts 182°
2026-05-05 13:47 34.31161 31.03266 34994 ft 467 kts 182°
2026-05-05 13:48 34.24676 31.03839 35011 ft 467 kts 182°
2026-05-05 13:48 34.18192 31.04412 35013 ft 466 kts 182°
2026-05-05 13:49 34.11759 31.04979 35012 ft 466 kts 182°
2026-05-05 13:49 34.05292 31.05548 35006 ft 466 kts 182°
2026-05-05 13:50 33.98831 31.06112 35007 ft 466 kts 182°
2026-05-05 13:50 33.92398 31.06677 35006 ft 460 kts 183°
2026-05-05 13:51 33.85996 31.07237 35016 ft 461 kts 183°
2026-05-05 13:51 33.79593 31.07798 35015 ft 461 kts 183°
2026-05-05 13:52 33.73199 31.08356 35024 ft 461 kts 183°
2026-05-05 13:52 33.66796 31.08914 35018 ft 461 kts 183°
2026-05-05 13:53 33.60400 31.09471 35027 ft 460 kts 183°
2026-05-05 13:53 33.54012 31.10027 35030 ft 460 kts 183°
2026-05-05 13:54 33.47673 31.10575 35031 ft 460 kts 183°
2026-05-05 13:54 33.41282 31.11130 35031 ft 460 kts 183°
2026-05-05 13:55 33.34894 31.11682 35035 ft 460 kts 184°
2026-05-05 13:55 33.28513 31.12234 35041 ft 459 kts 184°
2026-05-05 13:56 33.22136 31.12783 35041 ft 459 kts 184°
2026-05-05 13:56 33.15765 31.13333 35040 ft 459 kts 184°
2026-05-05 13:57 33.09387 31.13881 35050 ft 458 kts 184°
2026-05-05 13:57 33.03033 31.14427 35049 ft 458 kts 184°
2026-05-05 13:58 32.96713 31.14970 35051 ft 458 kts 184°
2026-05-05 13:58 32.90347 31.15513 35057 ft 458 kts 184°
2026-05-05 13:59 32.80802 31.16330 35061 ft 457 kts 184°
2026-05-05 14:00 32.72347 31.17050 35060 ft 457 kts 184°